Location: *
(44.1392°N, 4.8079°E)
Time: 13:40:39
(UTC+00:00)

Lacrosse 5 rocket - Pass Details

Date: 23 October 2021
Orbit: 459 x 633 km, 57.0° (Epoch: 04 December)

Event Time Altitude Azimuth Distance (km) Brightness Sun altitude
Exits shadow 03:22:09 23° 26° (NNE) 1,271 3.5 -29.9°
Drops below altitude 10° 03:24:03 10° 39° (NE) 1,931 4.7 -29.5°
Sets 03:26:29 0° 46° (NE) 2,863 5.8 -29.1°
